Tracking 19177 objects as of 24-May-2018
HD Live streaming from Space Station
objects crossing your sky now

GALS 1

Track GALS 1 now!
GALS 1 is classified as:


NORAD ID: 22963
Int'l Code: 1994-002A
Perigee: 35,778.5 km
Apogee: 35,840.0 km
Inclination: 14.5 °
Period: 1,436.9 minutes
Semi major axis: 42180 km
RCS: 6.3096 m2 (large)
Launch date: January 20, 1994
Source: Commonwealth of Independent States (former USSR) (CIS)
Launch site: TYURATAM MISSILE AND SPACE COMPLEX (TTMTR)
aabbcc
Your satellite tracking list
Your tracking list is empty




NASA's NSSDC Master Catalog

Two Line Element Set (TLE):
1 22963U 94002A   18143.78748668 +.00000092 +00000-0 +00000-0 0  9999
2 22963 014.4723 018.5189 0007284 157.3797 034.3961 01.00216439089163
Source of the keplerian elements: AFSPC